This demonstration page uses our WeatherBlox Daily Observations layout. Learn more.

Left ArrowRight Arrow

39.95238, -75.16362

Hourly Observations for February 20, 2017

Temp ( °F °C ) Dew Point ( °F °C ) Humidity (%) Winds ( mph kmh ) Pressure ( in mb ) Visibility ( mi km ) Precip ( " mm )
12:54 am 00:54 Clear 52 11.1 33 0.6 49 49 N 6 9 30.02 1017 10 16 0.00 0.00
1:54 am 01:54 Clear 50 10 31 -0.6 48 48 NNW 7 11 30.04 1017 10 16 0.00 0.00
2:54 am 02:54 Mostly Clear 49 9.4 31 -0.6 50 50 N 10 17 30.05 1018 10 16 0.00 0.00
3:54 am 03:54 Clear 49 9.4 32 0 52 52 N 10 17 30.07 1018 10 16 0.00 0.00
4:54 am 04:54 Clear 47 8.3 32 0 56 56 NNW 9 15 30.11 1020 10 16 0.00 0.00
5:54 am 05:54 Clear 44 6.7 32 0 63 63 NNW 9 15 30.14 1021 10 16 0.00 0.00
6:54 am 06:54 Sunny 43 6.1 32 0 65 65 N 6 9 30.17 1022 10 16 0.00 0.00
7:54 am 07:54 Sunny 47 8.3 34 1.1 61 61 NNW 7 11 30.20 1023 10 16 0.00 0.00
8:54 am 08:54 Sunny 50 10 32 0 50 50 NNW 14 22 30.23 1024 10 16 0.00 0.00
9:54 am 09:54 Mostly Sunny 52 11.1 31 -0.6 45 45 NNW 12 19 30.24 1024 10 16 0.00 0.00
10:54 am 10:54 Mostly Sunny 53 11.7 31 -0.6 43 43 N 14 22 30.24 1024 10 16 0.00 0.00
11:54 am 11:54 Mostly Sunny 54 12.2 30 -1.1 40 40 NNW 10 17 30.23 1024 10 16 0.00 0.00
12:54 pm 12:54 Mostly Sunny 56 13.3 28 -2.2 34 34 NW 16 26 30.22 1023 10 16 0.00 0.00
1:20 pm 13:20 Mostly Sunny 57 13.9 28 -2.2 33 33 N 17 28 30.21 1023 10 16 0.00 0.00
1:54 pm 13:54 Mostly Sunny 57 13.9 25 -3.9 29 29 NNW 15 24 30.20 1023 10 16 0.00 0.00
2:54 pm 14:54 Mostly Sunny 57 13.9 24 -4.4 28 28 NNW 16 26 30.20 1023 10 16 0.00 0.00
3:54 pm 15:54 Mostly Sunny 57 13.9 22 -5.6 26 26 NNW 12 19 30.21 1023 10 16 0.00 0.00
4:54 pm 16:54 Partly Cloudy 56 13.3 20 -6.7 24 24 N 15 24 30.21 1023 10 16 0.00 0.00
5:54 pm 17:54 Partly Cloudy 54 12.2 17 -8.3 23 23 N 14 22 30.24 1024 10 16 0.00 0.00
6:54 pm 18:54 Mostly Clear 52 11.1 18 -7.8 26 26 NNE 10 17 30.27 1025 10 16 0.00 0.00
7:54 pm 19:54 Clear 50 10 18 -7.8 28 28 N 12 19 30.29 1026 10 16 0.00 0.00
8:54 pm 20:54 Clear 48 8.9 18 -7.8 30 30 NE 12 19 30.30 1026 10 16 0.00 0.00
9:09 pm 21:09 Clear 48 8.9 14 -10 25 25 NE 14 22 30.30 1026 10 16 0.00 0.00
9:54 pm 21:54 Clear 47 8.3 10 -12.2 22 22 NE 15 24 30.32 1027 10 16 0.00 0.00
10:54 pm 22:54 Mostly Clear 44 6.7 12 -11.1 27 27 NE 10 17 30.34 1028 10 16 0.00 0.00
11:54 pm 23:54 Mostly Clear 41 5 14 -10 33 33 NE 8 13 30.35 1028 10 16 0.00 0.00

Powered by AerisWeather